FALCON 9 DEB (49461 NORAD) Tracking and Keplerian Element Data

This shows tracking and keplerian element data for the satellite.

Feedback or suggestion? Click here.




ElementValue
Catalog49461
NameFALCON 9 DEB
Epoch Orbit289
Epoch Day334.44318138
Epoch Year2021
RAAN46.3514
Inclination53.2126
Eccentricity0.0016224
Argument of Perigee102.962
Mean Anonmoly257.3244
Mean Motion16.45244678
Decay Rate0.10523872
L11 49461U 21104BF 21334.44318138 .10523872 12431-4 22401-3 0 9992
L22 49461 53.2126 46.3514 0016224 102.9620 257.3244 16.45244678 2896

Live tracking and technical data element details for FALCON 9 DEB (NORAD 49461). FALCON 9 DEB can be tracked NOW for your location showing map with azimuth and elevation plus other details from your city location.

Track the satellite on the map from your city or location and see movement details for azimuth, elevation, latitude, longitude, range, height, and movement on the map or in text.







IsCatalogInMostPopularTable: catalog: 49461, numindb: 1
Update: records affected: 1



GetName: 49461 FALCON 9 DEB

Hit Count: updated at: Wed, 08 Dec 2021 15:53:03 GMT